Retour au catalogue

SL-14 R/B

ActifPO
NORAD 14373·ROCKET BODY·🇷🇺 Russia

Lancé Sep 28, 1983 depuis Plesetsk Cosmodrome

Loading…

Prochains Passages (prochaines 24 heures)

TLE

FraisSource: Space-Track

Époque: Sep 14, 2026, 05:08 UTC

1 14373U 83099B   26257.21421949  .00000302  00000-0  31432-4 0  9993
2 14373  82.5412 325.5997 0018046 230.3593 129.6032 14.86368690300621

Suivez SL-14 R/B en temps réel avec AllMySat

Download on the App Store